| time (UTC) | temp F | wind direction | speed MPH | gust MPH | rain 1hr in | rain 24hr in | rain mn in | humidity % | barometer mb |
| 20260902070710 | 77 | 320 | 0.0 | 1.0 | 0.00 | 0.11 | 0.00 | 99 | 1015.2 |
| 20260902070208 | 77 | 321 | 0.0 | 1.0 | 0.00 | 0.11 | 0.00 | 99 | 1015.2 |
| 20260902065708 | 77 | 320 | 0.0 | 0.0 | 0.00 | 0.11 | 0.00 | 99 | 1015.3 |
| 20260902065208 | 77 | 315 | 0.0 | 0.0 | 0.00 | 0.11 | 0.00 | 99 | 1015.3 |
| 20260902064707 | 77 | 317 | 0.0 | 0.0 | 0.00 | 0.11 | 0.00 | 99 | 1015.1 |
| 20260902064207 | 77 | 315 | 0.0 | 0.0 | 0.00 | 0.11 | 0.00 | 99 | 1015.4 |
| 20260902064127 | 77 | 322 | 1.0 | 1.0 | 0.00 | 0.11 | 0.00 | 99 | 1015.3 |
| 20260902063747 | 77 | 316 | 0.0 | 1.0 | 0.00 | 0.11 | 0.00 | 99 | 1015.3 |
| 20260902062653 | 77 | 314 | 0.0 | 0.0 | 0.00 | 0.11 | 0.00 | 99 | 1015.3 |
| 20260902062154 | 77 | 315 | 0.0 | 0.0 | 0.00 | 0.11 | 0.00 | 99 | 1015.2 |
| 20260902061652 | 77 | 314 | 0.0 | 0.0 | 0.00 | 0.11 | 0.00 | 99 | 1015.2 |
| 20260902061148 | 77 | 318 | 0.0 | 0.0 | 0.00 | 0.11 | 0.00 | 99 | 1015.0 |
| 20260902061002 | 77 | 320 | 0.0 | 0.0 | 0.00 | 0.11 | 0.00 | 99 | 1015.3 |
| 20260902060235 | 77 | 320 | 0.0 | 0.0 | 0.00 | 0.11 | 0.00 | 99 | 1015.5 |
| 20260902060158 | 77 | 320 | 0.0 | 0.0 | 0.00 | 0.11 | 0.00 | 99 | 1015.3 |
| 20260902055132 | 77 | 320 | 0.0 | 0.0 | 0.00 | 0.11 | 0.00 | 99 | 1015.2 |
| 20260902054635 | 77 | 320 | 0.0 | 0.0 | 0.00 | 0.11 | 0.00 | 99 | 1015.4 |
| 20260902054134 | 77 | 318 | 0.0 | 0.0 | 0.00 | 0.11 | 0.00 | 99 | 1015.4 |
| 20260902053911 | 77 | 318 | 0.0 | 1.0 | 0.00 | 0.11 | 0.00 | 99 | 1015.5 |
| 20260902053105 | 77 | 318 | 0.0 | 1.0 | 0.00 | 0.11 | 0.00 | 99 | 1015.5 |
| 20260902052605 | 77 | 319 | 0.0 | 0.0 | 0.00 | 0.11 | 0.00 | 99 | 1015.5 |
| 20260902052108 | 77 | 318 | 0.0 | 1.0 | 0.00 | 0.11 | 0.00 | 99 | 1015.4 |
| 20260902051607 | 78 | 318 | 0.0 | 1.0 | 0.00 | 0.11 | 0.00 | 99 | 1015.4 |
| 20260902051106 | 78 | 316 | 0.0 | 0.0 | 0.00 | 0.11 | 0.00 | 99 | 1015.2 |
| 20260902050606 | 78 | 315 | 0.0 | 0.0 | 0.00 | 0.11 | 0.00 | 99 | 1015.2 |
| 20260902050123 | 78 | 319 | 0.0 | 0.0 | 0.00 | 0.11 | 0.00 | 99 | 1015.3 |
| 20260902045850 | 78 | 311 | 0.0 | 0.0 | 0.00 | 0.11 | 0.00 | 99 | 1015.5 |
| 20260902045105 | 78 | 319 | 0.0 | 0.0 | 0.00 | 0.11 | 0.00 | 99 | 1015.1 |
| 20260902044606 | 78 | 319 | 0.0 | 0.0 | 0.00 | 0.11 | 0.00 | 99 | 1015.3 |
| 20260902044104 | 78 | 319 | 0.0 | 0.0 | 0.00 | 0.11 | 0.00 | 99 | 1015.3 |
| 20260902043607 | 78 | 319 | 0.0 | 1.0 | 0.00 | 0.11 | 0.00 | 99 | 1015.1 |
| 20260902043105 | 78 | 320 | 0.0 | 1.0 | 0.00 | 0.11 | 0.00 | 99 | 1015.6 |
| 20260902042605 | 78 | 322 | 0.0 | 0.0 | 0.00 | 0.11 | 0.00 | 99 | 1015.3 |
| 20260902042157 | 78 | 320 | 0.0 | 1.0 | 0.00 | 0.11 | 0.00 | 99 | 1015.7 |
| 20260902042123 | 78 | 318 | 0.0 | 1.0 | 0.00 | 0.11 | 0.00 | 99 | 1015.3 |
| 20260902041106 | 78 | 304 | 1.0 | 1.0 | 0.00 | 0.11 | 0.00 | 99 | 1015.5 |
| 20260902040604 | 78 | 319 | 0.0 | 1.0 | 0.00 | 0.11 | 0.00 | 99 | 1015.6 |
| 20260902040118 | 78 | 319 | 0.0 | 0.0 | 0.00 | 0.11 | 0.00 | 99 | 1015.8 |
| 20260902035606 | 78 | 320 | 0.0 | 0.0 | 0.00 | 0.11 | 0.11 | 99 | 1015.9 |
| 20260902035108 | 78 | 321 | 0.0 | 0.0 | 0.00 | 0.11 | 0.11 | 99 | 1015.9 |
| 20260902034606 | 78 | 321 | 0.0 | 0.0 | 0.00 | 0.11 | 0.11 | 99 | 1015.9 |
| 20260902034107 | 78 | 318 | 0.0 | 0.0 | 0.00 | 0.11 | 0.11 | 99 | 1015.9 |
| 20260902033604 | 78 | 318 | 0.0 | 0.0 | 0.00 | 0.11 | 0.11 | 99 | 1016.0 |
| 20260902033109 | 78 | 320 | 0.0 | 0.0 | 0.00 | 0.11 | 0.11 | 99 | 1016.4 |
| 20260902032612 | 78 | 319 | 0.0 | 0.0 | 0.00 | 0.11 | 0.11 | 99 | 1016.3 |
| 20260902032355 | 78 | 316 | 0.0 | 0.0 | 0.00 | 0.11 | 0.11 | 99 | 1016.2 |
| 20260902031847 | 78 | 319 | 0.0 | 0.0 | 0.00 | 0.11 | 0.11 | 98 | 1016.4 |
| 20260902031106 | 78 | 320 | 0.0 | 0.0 | 0.00 | 0.11 | 0.11 | 98 | 1016.4 |
| 20260902030606 | 78 | 320 | 0.0 | 0.0 | 0.00 | 0.11 | 0.11 | 97 | 1016.2 |
| 20260902030114 | 78 | 320 | 0.0 | 0.0 | 0.00 | 0.11 | 0.11 | 97 | 1016.4 |
| 20260902025606 | 79 | 320 | 0.0 | 0.0 | 0.00 | 0.11 | 0.11 | 97 | 1016.3 |
| 20260902025059 | 78 | 320 | 0.0 | 0.0 | 0.00 | 0.11 | 0.11 | 97 | 1016.3 |
| 20260902024559 | 78 | 320 | 0.0 | 0.0 | 0.00 | 0.11 | 0.11 | 97 | 1016.3 |
| 20260902024056 | 78 | 324 | 0.0 | 0.0 | 0.00 | 0.11 | 0.11 | 97 | 1016.2 |
| 20260902023535 | 78 | 319 | 0.0 | 0.0 | 0.00 | 0.11 | 0.11 | 97 | 1016.3 |
| 20260902023037 | 78 | 320 | 0.0 | 0.0 | 0.00 | 0.11 | 0.11 | 97 | 1016.4 |
| 20260902022537 | 79 | 321 | 0.0 | 0.0 | 0.00 | 0.11 | 0.11 | 97 | 1016.5 |
| 20260902022035 | 79 | 320 | 0.0 | 0.0 | 0.00 | 0.11 | 0.11 | 97 | 1016.3 |
| 20260902021818 | 79 | 319 | 0.0 | 0.0 | 0.00 | 0.11 | 0.11 | 97 | 1016.5 |
| 20260902021318 | 79 | 320 | 0.0 | 0.0 | 0.00 | 0.11 | 0.11 | 97 | 1016.5 |
| 20260902020836 | 79 | 318 | 0.0 | 0.0 | 0.00 | 0.11 | 0.11 | 96 | 1016.6 |
| 20260902020033 | 79 | 323 | 0.0 | 0.0 | 0.00 | 0.11 | 0.11 | 96 | 1016.5 |
| 20260902015533 | 79 | 321 | 0.0 | 0.0 | 0.00 | 0.11 | 0.11 | 96 | 1016.2 |
| 20260902015036 | 79 | 321 | 0.0 | 0.0 | 0.00 | 0.11 | 0.11 | 96 | 1016.3 |
| 20260902014533 | 79 | 320 | 0.0 | 1.0 | 0.00 | 0.11 | 0.11 | 95 | 1016.4 |
| 20260902014034 | 79 | 320 | 0.0 | 1.0 | 0.00 | 0.11 | 0.11 | 95 | 1016.2 |
| 20260902013534 | 79 | 336 | 0.0 | 0.0 | 0.00 | 0.11 | 0.11 | 95 | 1016.2 |
| 20260902013035 | 79 | 323 | 0.0 | 0.0 | 0.00 | 0.11 | 0.11 | 94 | 1016.5 |
| 20260902012533 | 79 | 320 | 0.0 | 1.0 | 0.00 | 0.11 | 0.11 | 94 | 1016.2 |
| 20260902012317 | 80 | 320 | 0.0 | 1.0 | 0.00 | 0.11 | 0.11 | 94 | 1016.1 |
| 20260902011533 | 80 | 322 | 0.0 | 1.0 | 0.00 | 0.11 | 0.11 | 93 | 1016.0 |
| 20260902011034 | 80 | 320 | 0.0 | 1.0 | 0.00 | 0.11 | 0.11 | 92 | 1016.2 |
| 20260902010532 | 80 | 329 | 0.0 | 1.0 | 0.00 | 0.11 | 0.11 | 92 | 1016.0 |
| 20260902010033 | 80 | 324 | 0.0 | 2.0 | 0.00 | 0.11 | 0.11 | 92 | 1016.2 |
| 20260902005539 | 80 | 323 | 0.0 | 3.0 | 0.00 | 0.11 | 0.11 | 92 | 1016.1 |
| 20260902005325 | 81 | 333 | 1.0 | 3.0 | 0.00 | 0.11 | 0.11 | 91 | 1016.1 |
| 20260902004533 | 81 | 335 | 0.0 | 4.0 | 0.00 | 0.11 | 0.11 | 92 | 1016.0 |
| 20260902004027 | 81 | 315 | 1.0 | 4.0 | 0.00 | 0.11 | 0.11 | 92 | 1016.1 |
| 20260902003526 | 81 | 324 | 1.0 | 3.0 | 0.00 | 0.11 | 0.11 | 92 | 1015.7 |
| 20260902003022 | 81 | 349 | 3.0 | 3.0 | 0.00 | 0.11 | 0.11 | 92 | 1015.9 |
| 20260902002521 | 81 | 351 | 1.0 | 3.0 | 0.00 | 0.11 | 0.11 | 92 | 1015.8 |
| 20260902002015 | 81 | 321 | 0.0 | 1.0 | 0.00 | 0.11 | 0.11 | 93 | 1016.0 |
| 20260902001757 | 81 | 319 | 0.0 | 1.0 | 0.00 | 0.11 | 0.11 | 92 | 1015.9 |
| 20260902001008 | 82 | 320 | 0.0 | 2.0 | 0.00 | 0.11 | 0.11 | 92 | 1015.9 |
| 20260902000507 | 82 | 341 | 0.0 | 2.0 | 0.00 | 0.11 | 0.11 | 91 | 1015.9 |
| 20260902000009 | 82 | 318 | 0.0 | 2.0 | 0.00 | 0.11 | 0.11 | 90 | 1015.8 |
| 20260901235505 | 82 | 328 | 1.0 | 2.0 | 0.00 | 0.11 | 0.11 | 90 | 1015.7 |
| 20260901235007 | 82 | 327 | 1.0 | 2.0 | 0.00 | 0.11 | 0.11 | 89 | 1015.8 |
| 20260901234504 | 82 | 337 | 1.0 | 2.0 | 0.00 | 0.11 | 0.11 | 89 | 1015.9 |
| 20260901234018 | 82 | 320 | 0.0 | 2.0 | 0.00 | 0.11 | 0.11 | 88 | 1015.9 |
| 20260901233749 | 83 | 323 | 1.0 | 2.0 | 0.00 | 0.11 | 0.11 | 88 | 1016.0 |
| 20260901233008 | 83 | 329 | 1.0 | 4.0 | 0.00 | 0.11 | 0.11 | 88 | 1015.8 |
| 20260901232823 | 83 | 332 | 1.0 | 4.0 | 0.00 | 0.11 | 0.11 | 88 | 1015.8 |
| 20260901232006 | 83 | 333 | 1.0 | 3.0 | 0.00 | 0.11 | 0.11 | 87 | 1015.7 |
| 20260901231813 | 84 | 26 | 1.0 | 4.0 | 0.00 | 0.11 | 0.11 | 87 | 1015.6 |
| 20260901231314 | 84 | 320 | 0.0 | 7.0 | 0.00 | 0.11 | 0.11 | 87 | 1015.5 |
| 20260901230751 | 84 | 338 | 0.0 | 7.0 | 0.00 | 0.11 | 0.11 | 87 | 1015.7 |
| 20260901230011 | 84 | 359 | 2.0 | 4.0 | 0.00 | 0.11 | 0.11 | 86 | 1015.6 |
| 20260901225507 | 85 | 316 | 1.0 | 3.0 | 0.00 | 0.11 | 0.11 | 85 | 1015.5 |
| 20260901225005 | 85 | 328 | 1.0 | 6.0 | 0.00 | 0.11 | 0.11 | 83 | 1015.4 |
| 20260901224506 | 85 | 315 | 0.0 | 6.0 | 0.00 | 0.11 | 0.11 | 83 | 1015.3 |
| 20260901224304 | 86 | 322 | 1.0 | 3.0 | 0.00 | 0.11 | 0.11 | 81 | 1015.4 |
| 20260901223506 | 86 | 321 | 0.0 | 3.0 | 0.00 | 0.11 | 0.11 | 79 | 1015.5 |
| 20260901223006 | 87 | 52 | 2.0 | 3.0 | 0.00 | 0.11 | 0.11 | 78 | 1015.5 |
| 20260901222750 | 86 | 315 | 1.0 | 7.0 | 0.00 | 0.11 | 0.11 | 79 | 1015.3 |
| 20260901222007 | 86 | 1 | 1.0 | 7.0 | 0.00 | 0.11 | 0.11 | 78 | 1015.2 |
| 20260901221507 | 87 | 35 | 3.0 | 4.0 | 0.00 | 0.11 | 0.11 | 76 | 1015.2 |
| 20260901221010 | 88 | 18 | 2.0 | 4.0 | 0.00 | 0.11 | 0.11 | 74 | 1015.1 |
| 20260901220509 | 88 | 316 | 0.0 | 6.0 | 0.00 | 0.11 | 0.11 | 78 | 1015.1 |
| 20260901220006 | 87 | 358 | 1.0 | 6.0 | 0.00 | 0.11 | 0.11 | 78 | 1015.1 |
| 20260901215505 | 87 | 344 | 2.0 | 6.0 | 0.00 | 0.11 | 0.11 | 78 | 1014.7 |
| 20260901215001 | 87 | 279 | 3.0 | 7.0 | 0.00 | 0.11 | 0.11 | 79 | 1015.0 |
| 20260901214501 | 87 | 57 | 2.0 | 7.0 | 0.00 | 0.11 | 0.11 | 78 | 1015.1 |
| 20260901214246 | 87 | 15 | 2.0 | 4.0 | 0.00 | 0.11 | 0.11 | 77 | 1014.8 |
| 20260901213457 | 87 | 21 | 2.0 | 7.0 | 0.00 | 0.11 | 0.11 | 78 | 1014.6 |
| 20260901213228 | 87 | 61 | 2.0 | 7.0 | 0.00 | 0.11 | 0.11 | 78 | 1014.8 |
| 20260901212448 | 88 | 307 | 2.0 | 8.0 | 0.00 | 0.11 | 0.11 | 76 | 1014.8 |
| 20260901211943 | 88 | 16 | 2.0 | 8.0 | 0.00 | 0.11 | 0.11 | 76 | 1015.2 |
| 20260901211441 | 88 | 15 | 1.0 | 7.0 | 0.00 | 0.11 | 0.11 | 76 | 1014.9 |
| 20260901210933 | 88 | 37 | 1.0 | 7.0 | 0.00 | 0.11 | 0.11 | 76 | 1014.9 |
| 20260901210433 | 87 | 241 | 2.0 | 7.0 | 0.00 | 0.11 | 0.11 | 76 | 1014.9 |
| 20260901205932 | 87 | 81 | 2.0 | 7.0 | 0.00 | 0.11 | 0.11 | 78 | 1014.9 |
| 20260901205432 | 87 | 59 | 2.0 | 7.0 | 0.00 | 0.11 | 0.11 | 78 | 1014.9 |
| 20260901204938 | 87 | 320 | 0.0 | 6.0 | 0.00 | 0.11 | 0.11 | 78 | 1014.9 |
| 20260901204435 | 88 | 296 | 1.0 | 4.0 | 0.00 | 0.11 | 0.11 | 77 | 1015.0 |
| 20260901203932 | 87 | 0 | 2.0 | 4.0 | 0.00 | 0.11 | 0.11 | 77 | 1014.9 |
| 20260901203432 | 86 | 276 | 2.0 | 4.0 | 0.00 | 0.11 | 0.11 | 78 | 1015.0 |
| 20260901203218 | 86 | 349 | 1.0 | 4.0 | 0.00 | 0.11 | 0.11 | 80 | 1015.1 |
| 20260901202433 | 86 | 341 | 2.0 | 4.0 | 0.00 | 0.11 | 0.11 | 80 | 1015.1 |
| 20260901201933 | 86 | 350 | 1.0 | 4.0 | 0.00 | 0.11 | 0.11 | 80 | 1015.2 |
| 20260901201435 | 86 | 327 | 1.0 | 3.0 | 0.00 | 0.11 | 0.11 | 81 | 1015.4 |
| 20260901200939 | 86 | 259 | 1.0 | 6.0 | 0.00 | 0.11 | 0.11 | 80 | 1015.3 |
| 20260901200438 | 86 | 35 | 2.0 | 6.0 | 0.00 | 0.11 | 0.11 | 80 | 1015.4 |
| 20260901195936 | 87 | 285 | 2.0 | 4.0 | 0.00 | 0.11 | 0.11 | 79 | 1015.5 |
| 20260901195436 | 87 | 321 | 2.0 | 6.0 | 0.00 | 0.11 | 0.11 | 77 | 1015.5 |
| 20260901194931 | 87 | 11 | 2.0 | 6.0 | 0.00 | 0.11 | 0.11 | 77 | 1015.6 |
| 20260901194718 | 88 | 24 | 1.0 | 6.0 | 0.00 | 0.11 | 0.11 | 77 | 1015.5 |
| 20260901193934 | 88 | 44 | 1.0 | 3.0 | 0.00 | 0.11 | 0.11 | 78 | 1015.6 |
| 20260901193432 | 89 | 285 | 0.0 | 4.0 | 0.00 | 0.11 | 0.11 | 81 | 1015.6 |
| 20260901192932 | 88 | 258 | 1.0 | 6.0 | 0.00 | 0.11 | 0.11 | 76 | 1015.6 |
| 20260901192431 | 89 | 52 | 4.0 | 6.0 | 0.00 | 0.11 | 0.11 | 77 | 1015.8 |
| 20260901191932 | 89 | 226 | 3.0 | 6.0 | 0.00 | 0.11 | 0.11 | 77 | 1015.8 |
| 20260901191436 | 90 | 311 | 2.0 | 6.0 | 0.00 | 0.11 | 0.11 | 77 | 1015.6 |
| 20260901190936 | 90 | 336 | 1.0 | 6.0 | 0.00 | 0.11 | 0.11 | 80 | 1015.6 |
| 20260901190448 | 89 | 312 | 1.0 | 3.0 | 0.00 | 0.11 | 0.11 | 79 | 1015.7 |
| 20260901190222 | 89 | 311 | 0.0 | 4.0 | 0.00 | 0.11 | 0.11 | 81 | 1015.9 |
| 20260901185432 | 89 | 284 | 2.0 | 8.0 | 0.00 | 0.11 | 0.11 | 80 | 1015.8 |
| 20260901184933 | 88 | 357 | 3.0 | 8.0 | 0.00 | 0.11 | 0.11 | 81 | 1015.9 |
| 20260901184433 | 89 | 351 | 4.0 | 7.0 | 0.00 | 0.11 | 0.11 | 80 | 1015.7 |
| 20260901183940 | 88 | 25 | 2.0 | 4.0 | 0.00 | 0.11 | 0.11 | 81 | 1016.0 |
| 20260901183433 | 87 | 267 | 2.0 | 4.0 | 0.00 | 0.11 | 0.11 | 82 | 1015.9 |
| 20260901182933 | 87 | 354 | 2.0 | 4.0 | 0.00 | 0.11 | 0.11 | 82 | 1016.1 |
| 20260901182718 | 86 | 325 | 1.0 | 4.0 | 0.00 | 0.11 | 0.11 | 84 | 1016.6 |
| 20260901181932 | 86 | 326 | 1.0 | 3.0 | 0.00 | 0.11 | 0.11 | 86 | 1016.2 |
| 20260901181431 | 86 | 315 | 1.0 | 3.0 | 0.00 | 0.11 | 0.11 | 86 | 1016.1 |
| 20260901180929 | 85 | 345 | 2.0 | 4.0 | 0.00 | 0.11 | 0.11 | 86 | 1016.3 |
| 20260901180427 | 85 | 355 | 3.0 | 4.0 | 0.00 | 0.11 | 0.11 | 85 | 1016.4 |
| 20260901175922 | 85 | 261 | 2.0 | 3.0 | 0.00 | 0.11 | 0.11 | 87 | 1016.5 |
| 20260901175424 | 85 | 334 | 1.0 | 3.0 | 0.00 | 0.11 | 0.11 | 87 | 1016.4 |
| 20260901174914 | 85 | 331 | 1.0 | 4.0 | 0.00 | 0.11 | 0.11 | 86 | 1016.5 |
| 20260901174427 | 85 | 29 | 1.0 | 4.0 | 0.00 | 0.11 | 0.11 | 87 | 1016.5 |
| 20260901173909 | 85 | 77 | 2.0 | 3.0 | 0.00 | 0.11 | 0.11 | 87 | 1016.7 |
| 20260901173423 | 85 | 39 | 2.0 | 3.0 | 0.00 | 0.11 | 0.11 | 86 | 1016.9 |
| 20260901172910 | 85 | 315 | 1.0 | 2.0 | 0.00 | 0.11 | 0.11 | 87 | 1016.8 |
| 20260901172411 | 84 | 152 | 0.0 | 3.0 | 0.00 | 0.11 | 0.11 | 89 | 1016.9 |
| 20260901171909 | 84 | 32 | 2.0 | 3.0 | 0.00 | 0.11 | 0.11 | 89 | 1016.8 |
| 20260901171407 | 85 | 323 | 1.0 | 4.0 | 0.00 | 0.11 | 0.11 | 90 | 1016.7 |
| 20260901170911 | 84 | 307 | 0.0 | 4.0 | 0.00 | 0.11 | 0.11 | 92 | 1017.0 |
| 20260901170731 | 84 | 11 | 1.0 | 6.0 | 0.02 | 0.11 | 0.11 | 91 | 1017.2 |
| 20260901165907 | 84 | 46 | 4.0 | 6.0 | 0.05 | 0.11 | 0.11 | 92 | 1017.1 |
| 20260901165407 | 83 | 313 | 1.0 | 3.0 | 0.08 | 0.11 | 0.11 | 94 | 1017.2 |
| 20260901164909 | 84 | 0 | 2.0 | 3.0 | 0.11 | 0.11 | 0.11 | 95 | 1017.2 |
| 20260901164411 | 83 | 322 | 1.0 | 2.0 | 0.11 | 0.11 | 0.11 | 97 | 1017.3 |
| 20260901163912 | 82 | 118 | 1.0 | 2.0 | 0.11 | 0.11 | 0.11 | 98 | 1017.1 |
| 20260901163653 | 82 | 321 | 0.0 | 1.0 | 0.11 | 0.11 | 0.11 | 99 | 1017.0 |
| 20260901163158 | 82 | 320 | 0.0 | 1.0 | 0.11 | 0.11 | 0.11 | 99 | 1017.3 |
| 20260901162414 | 82 | 326 | 0.0 | 2.0 | 0.11 | 0.11 | 0.11 | 99 | 1017.5 |
| 20260901161910 | 80 | 305 | 0.0 | 2.0 | 0.11 | 0.11 | 0.11 | 99 | 1017.4 |
| 20260901161411 | 80 | 287 | 1.0 | 2.0 | 0.11 | 0.11 | 0.11 | 99 | 1017.3 |
| 20260901160912 | 81 | 321 | 0.0 | 2.0 | 0.11 | 0.11 | 0.11 | 99 | 1017.7 |
| 20260901160409 | 81 | 314 | 1.0 | 2.0 | 0.09 | 0.09 | 0.09 | 98 | 1017.5 |
| 20260901155911 | 81 | 318 | 0.0 | 3.0 | 0.06 | 0.06 | 0.06 | 98 | 1017.6 |
| 20260901155658 | 82 | 345 | 2.0 | 6.0 | 0.03 | 0.03 | 0.03 | 94 | 1017.6 |
| 20260901154854 | 82 | 326 | 1.0 | 6.0 | 0.00 | 0.00 | 0.00 | 90 | 1017.5 |
| 20260901154356 | 84 | 12 | 4.0 | 6.0 | 0.00 | 0.00 | 0.00 | 89 | 1017.3 |
| 20260901153851 | 86 | 315 | 1.0 | 4.0 | 0.00 | 0.00 | 0.00 | 84 | 1017.5 |
| 20260901153350 | 88 | 15 | 0.0 | 4.0 | 0.00 | 0.00 | 0.00 | 80 | 1017.3 |
| 20260901152848 | 89 | 328 | 1.0 | 6.0 | 0.00 | 0.00 | 0.00 | 78 | 1017.3 |
| 20260901152346 | 89 | 331 | 0.0 | 6.0 | 0.00 | 0.00 | 0.00 | 77 | 1017.0 |
| 20260901151834 | 89 | 4 | 0.0 | 6.0 | 0.00 | 0.00 | 0.00 | 78 | 1017.4 |
| 20260901151345 | 89 | 332 | 2.0 | 3.0 | 0.00 | 0.00 | 0.00 | 80 | 1017.3 |
| 20260901150848 | 89 | 40 | 2.0 | 3.0 | 0.00 | 0.00 | 0.00 | 76 | 1017.6 |
| 20260901150346 | 89 | 316 | 1.0 | 4.0 | 0.00 | 0.00 | 0.00 | 80 | 1017.2 |
| 20260901145832 | 88 | 320 | 1.0 | 6.0 | 0.00 | 0.00 | 0.00 | 82 | 1017.3 |
| 20260901145339 | 88 | 330 | 1.0 | 6.0 | 0.00 | 0.00 | 0.00 | 80 | 1017.1 |
| 20260901144836 | 90 | 25 | 2.0 | 3.0 | 0.00 | 0.00 | 0.00 | 78 | 1017.4 |
| 20260901144334 | 89 | 336 | 0.0 | 3.0 | 0.00 | 0.00 | 0.00 | 80 | 1017.1 |
| 20260901143835 | 88 | 324 | 1.0 | 6.0 | 0.00 | 0.00 | 0.00 | 79 | 1017.1 |
| 20260901143334 | 88 | 333 | 0.0 | 6.0 | 0.00 | 0.00 | 0.00 | 82 | 1017.0 |
| 20260901142835 | 88 | 331 | 1.0 | 3.0 | 0.00 | 0.00 | 0.00 | 83 | 1017.1 |
| 20260901142346 | 87 | 47 | 1.0 | 3.0 | 0.00 | 0.00 | 0.00 | 81 | 1017.2 |
| 20260901142139 | 88 | 335 | 0.0 | 3.0 | 0.00 | 0.00 | 0.00 | 82 | 1017.2 |
| 20260901141346 | 87 | 290 | 0.0 | 3.0 | 0.00 | 0.00 | 0.00 | 85 | 1017.1 |
| 20260901140848 | 87 | 18 | 1.0 | 2.0 | 0.00 | 0.00 | 0.00 | 83 | 1017.1 |
| 20260901140653 | 87 | 339 | 1.0 | 3.0 | 0.00 | 0.00 | 0.00 | 84 | 1017.2 |
| 20260901135835 | 86 | 7 | 1.0 | 4.0 | 0.00 | 0.00 | 0.00 | 86 | 1017.2 |
| 20260901135335 | 86 | 290 | 2.0 | 4.0 | 0.00 | 0.00 | 0.00 | 86 | 1017.0 |
| 20260901134835 | 87 | 332 | 0.0 | 3.0 | 0.00 | 0.00 | 0.00 | 85 | 1016.9 |
| 20260901134335 | 85 | 325 | 1.0 | 3.0 | 0.00 | 0.00 | 0.00 | 86 | 1017.0 |
| 20260901133833 | 86 | 329 | 1.0 | 3.0 | 0.00 | 0.00 | 0.00 | 86 | 1016.9 |
| 20260901133334 | 85 | 325 | 1.0 | 3.0 | 0.00 | 0.00 | 0.00 | 86 | 1016.9 |
| 20260901132832 | 85 | 320 | 2.0 | 3.0 | 0.00 | 0.00 | 0.00 | 86 | 1016.9 |
| 20260901132345 | 85 | 14 | 1.0 | 2.0 | 0.00 | 0.00 | 0.00 | 88 | 1016.6 |
| 20260901131832 | 84 | 341 | 0.0 | 3.0 | 0.00 | 0.00 | 0.00 | 91 | 1016.9 |
| 20260901131620 | 83 | 318 | 1.0 | 3.0 | 0.00 | 0.00 | 0.00 | 93 | 1016.9 |
| 20260901130843 | 83 | 299 | 1.0 | 2.0 | 0.00 | 0.00 | 0.00 | 93 | 1016.8 |
| 20260901130344 | 82 | 0 | 0.0 | 2.0 | 0.00 | 0.00 | 0.00 | 94 | 1016.8 |
| 20260901125834 | 82 | 323 | 0.0 | 2.0 | 0.00 | 0.00 | 0.00 | 94 | 1016.9 |
| 20260901125625 | 82 | 310 | 0.0 | 2.0 | 0.00 | 0.00 | 0.00 | 94 | 1017.0 |
| 20260901124845 | 81 | 318 | 0.0 | 2.0 | 0.00 | 0.00 | 0.00 | 96 | 1016.7 |
| 20260901124334 | 80 | 326 | 1.0 | 2.0 | 0.00 | 0.00 | 0.00 | 99 | 1016.9 |
| 20260901123831 | 80 | 319 | 0.0 | 2.0 | 0.00 | 0.00 | 0.00 | 99 | 1016.7 |
| 20260901123344 | 79 | 324 | 0.0 | 2.0 | 0.00 | 0.00 | 0.00 | 99 | 1016.7 |
| 20260901122827 | 79 | 325 | 0.0 | 1.0 | 0.00 | 0.00 | 0.00 | 99 | 1016.9 |
| 20260901122328 | 79 | 315 | 0.0 | 1.0 | 0.00 | 0.00 | 0.00 | 99 | 1016.7 |
| 20260901121826 | 79 | 318 | 0.0 | 1.0 | 0.00 | 0.00 | 0.00 | 99 | 1016.5 |
| 20260901121325 | 79 | 305 | 0.0 | 0.0 | 0.00 | 0.00 | 0.00 | 99 | 1016.4 |
| 20260901120808 | 77 | 317 | 0.0 | 0.0 | 0.00 | 0.00 | 0.00 | 99 | 1016.4 |
| 20260901120324 | 77 | 317 | 0.0 | 0.0 | 0.00 | 0.00 | 0.00 | 99 | 1016.3 |
| 20260901115806 | 77 | 314 | 0.0 | 0.0 | 0.00 | 0.00 | 0.00 | 99 | 1016.3 |
| 20260901115308 | 76 | 331 | 0.0 | 0.0 | 0.00 | 0.00 | 0.00 | 99 | 1016.3 |
| 20260901114805 | 76 | 320 | 0.0 | 0.0 | 0.00 | 0.00 | 0.00 | 99 | 1016.4 |
| 20260901114307 | 76 | 320 | 0.0 | 0.0 | 0.00 | 0.00 | 0.00 | 99 | 1016.4 |
| 20260901114107 | 76 | 321 | 0.0 | 0.0 | 0.00 | 0.00 | 0.00 | 99 | 1016.1 |
| 20260901113310 | 76 | 312 | 0.0 | 0.0 | 0.00 | 0.00 | 0.00 | 99 | 1016.2 |
| 20260901112808 | 76 | 316 | 0.0 | 0.0 | 0.00 | 0.00 | 0.00 | 99 | 1016.2 |
| 20260901112308 | 76 | 316 | 0.0 | 0.0 | 0.00 | 0.00 | 0.00 | 99 | 1016.0 |
| 20260901111806 | 76 | 316 | 0.0 | 0.0 | 0.00 | 0.00 | 0.00 | 99 | 1015.9 |
| 20260901111309 | 76 | 316 | 0.0 | 0.0 | 0.00 | 0.00 | 0.00 | 99 | 1015.9 |
| 20260901110806 | 75 | 316 | 0.0 | 0.0 | 0.00 | 0.00 | 0.00 | 99 | 1015.9 |
| 20260901110315 | 76 | 317 | 0.0 | 0.0 | 0.00 | 0.00 | 0.00 | 99 | 1015.8 |
| 20260901105925 | 76 | 317 | 0.0 | 0.0 | 0.00 | 0.00 | 0.00 | 99 | 1015.5 |
| 20260901105850 | 76 | 317 | 0.0 | 0.0 | 0.00 | 0.00 | 0.00 | 99 | 1016.0 |
| 20260901105050 | 76 | 316 | 0.0 | 0.0 | 0.00 | 0.00 | 0.00 | 99 | 1015.8 |
| 20260901104719 | 75 | 315 | 0.0 | 0.0 | 0.00 | 0.00 | 0.00 | 99 | 1015.7 |
| 20260901104656 | 75 | 317 | 0.0 | 0.0 | 0.00 | 0.00 | 0.00 | 99 | 1015.8 |
| 20260901103300 | 75 | 320 | 0.0 | 0.0 | 0.00 | 0.00 | 0.00 | 99 | 1015.6 |
| 20260901103115 | 75 | 321 | 0.0 | 0.0 | 0.00 | 0.00 | 0.00 | 99 | 1015.6 |
| 20260901102252 | 76 | 321 | 0.0 | 0.0 | 0.00 | 0.00 | 0.00 | 99 | 1015.6 |
| 20260901101922 | 76 | 317 | 0.0 | 0.0 | 0.00 | 0.00 | 0.00 | 99 | 1015.5 |
| 20260901101840 | 76 | 317 | 0.0 | 0.0 | 0.00 | 0.00 | 0.00 | 99 | 1015.4 |
| 20260901100745 | 76 | 317 | 0.0 | 0.0 | 0.00 | 0.00 | 0.00 | 99 | 1015.4 |
| 20260901100235 | 76 | 317 | 0.0 | 0.0 | 0.00 | 0.00 | 0.00 | 99 | 1015.5 |
| 20260901095734 | 76 | 317 | 0.0 | 0.0 | 0.00 | 0.00 | 0.00 | 99 | 1015.4 |
| 20260901095234 | 76 | 317 | 0.0 | 0.0 | 0.00 | 0.00 | 0.00 | 99 | 1015.4 |
| 20260901094731 | 76 | 317 | 0.0 | 0.0 | 0.00 | 0.00 | 0.00 | 99 | 1015.5 |
| 20260901094229 | 76 | 315 | 0.0 | 0.0 | 0.00 | 0.00 | 0.00 | 99 | 1015.1 |
| 20260901093728 | 76 | 315 | 0.0 | 0.0 | 0.00 | 0.00 | 0.00 | 99 | 1015.3 |
| 20260901093209 | 76 | 316 | 0.0 | 0.0 | 0.00 | 0.00 | 0.00 | 99 | 1015.4 |
| 20260901092709 | 76 | 316 | 0.0 | 0.0 | 0.00 | 0.00 | 0.00 | 99 | 1015.2 |
| 20260901092208 | 76 | 316 | 0.0 | 0.0 | 0.00 | 0.00 | 0.00 | 99 | 1015.4 |
| 20260901092121 | 76 | 317 | 0.0 | 0.0 | 0.00 | 0.00 | 0.00 | 99 | 1015.2 |
| 20260901092054 | 76 | 320 | 0.0 | 0.0 | 0.00 | 0.00 | 0.00 | 99 | 1015.2 |
| 20260901090705 | 76 | 319 | 0.0 | 0.0 | 0.00 | 0.00 | 0.00 | 99 | 1015.4 |
| 20260901090206 | 76 | 316 | 0.0 | 0.0 | 0.00 | 0.00 | 0.00 | 99 | 1015.5 |
| 20260901085706 | 76 | 316 | 0.0 | 0.0 | 0.00 | 0.00 | 0.00 | 99 | 1015.3 |
| 20260901085514 | 76 | 316 | 0.0 | 0.0 | 0.00 | 0.00 | 0.00 | 99 | 1015.5 |
| 20260901085124 | 76 | 316 | 0.0 | 0.0 | 0.00 | 0.00 | 0.00 | 99 | 1015.5 |
| 20260901084748 | 76 | 316 | 0.0 | 0.0 | 0.00 | 0.00 | 0.00 | 99 | 1015.4 |
| 20260901084011 | 77 | 317 | 0.0 | 0.0 | 0.00 | 0.00 | 0.00 | 99 | 1015.3 |
| 20260901083205 | 76 | 321 | 0.0 | 0.0 | 0.00 | 0.00 | 0.00 | 99 | 1015.3 |
| 20260901082706 | 76 | 320 | 0.0 | 0.0 | 0.00 | 0.00 | 0.00 | 99 | 1015.3 |
| 20260901082208 | 76 | 319 | 0.0 | 0.0 | 0.00 | 0.00 | 0.00 | 99 | 1015.2 |
| 20260901081705 | 76 | 319 | 0.0 | 0.0 | 0.00 | 0.00 | 0.00 | 99 | 1015.3 |
| 20260901081205 | 75 | 320 | 0.0 | 0.0 | 0.00 | 0.00 | 0.00 | 99 | 1015.4 |
| 20260901080704 | 76 | 320 | 0.0 | 0.0 | 0.00 | 0.00 | 0.00 | 99 | 1015.6 |
| 20260901080207 | 76 | 320 | 0.0 | 0.0 | 0.00 | 0.00 | 0.00 | 99 | 1015.4 |
| 20260901075705 | 76 | 321 | 0.0 | 0.0 | 0.00 | 0.00 | 0.00 | 99 | 1015.5 |
| 20260901075205 | 76 | 321 | 0.0 | 0.0 | 0.00 | 0.00 | 0.00 | 99 | 1015.3 |
| 20260901074705 | 76 | 321 | 0.0 | 0.0 | 0.00 | 0.00 | 0.00 | 99 | 1015.3 |
| 20260901074204 | 76 | 315 | 0.0 | 0.0 | 0.00 | 0.00 | 0.00 | 99 | 1015.5 |
| 20260901073703 | 76 | 314 | 0.0 | 0.0 | 0.00 | 0.00 | 0.00 | 99 | 1015.6 |
| 20260901073154 | 76 | 315 | 0.0 | 1.0 | 0.00 | 0.00 | 0.00 | 99 | 1015.7 |
| 20260901072656 | 76 | 320 | 0.0 | 1.0 | 0.00 | 0.00 | 0.00 | 99 | 1015.4 |
| 20260901072147 | 76 | 316 | 0.0 | 0.0 | 0.00 | 0.00 | 0.00 | 99 | 1015.6 |
| 20260901071647 | 76 | 317 | 0.0 | 0.0 | 0.00 | 0.00 | 0.00 | 99 | 1015.6 |
| 20260901071530 | 76 | 318 | 0.0 | 0.0 | 0.00 | 0.00 | 0.00 | 99 | 1015.8 |